CW2522 Weather Reports


Display with metric or nautical units.
time (UTC)temp
F
wind
direction
speed
MPH
gust
MPH
rain 1hr
in
rain 24hr
in
rain mn
in
humidity
%
barometer
mb
20260502123555 46 151 1.0 5.0 0.00 0.15 0.15 100 1011.4
20260502123034 46 152 1.0 4.0 0.00 0.15 0.15 100 1011.4
20260502122533 45 161 1.0 5.0 0.00 0.15 0.15 100 1011.5
20260502122033 46 67 2.0 5.0 0.00 0.15 0.15 100 1011.4
20260502121534 46 103 0.0 0.0 0.00 0.15 0.15 100 1011.4
20260502121032 46 103 0.0 0.0 0.00 0.15 0.15 100 1011.5
20260502120533 45 103 0.0 1.0 0.00 0.15 0.15 100 1011.5
20260502115556 44 103 0.0 0.0 0.00 0.15 0.15 100 1011.5
20260502115035 44 103 0.0 0.0 0.01 0.15 0.15 100 1011.4
20260502114537 44 103 0.0 0.0 0.01 0.15 0.15 100 1011.6
20260502114041 44 103 0.0 0.0 0.02 0.15 0.15 100 1011.6
20260502113542 44 103 0.0 0.0 0.02 0.15 0.15 100 1011.6
20260502113041 43 103 0.0 2.0 0.03 0.15 0.15 100 1011.6
20260502112541 44 103 1.0 2.0 0.04 0.15 0.15 100 1011.6
20260502112042 44 103 1.0 2.0 0.05 0.15 0.15 100 1011.4
20260502111543 44 103 0.0 2.0 0.07 0.15 0.15 100 1011.4
20260502111044 43 103 0.0 1.0 0.07 0.15 0.15 100 1011.4
20260502110525 43 103 0.0 3.0 0.08 0.15 0.15 100 1011.3
20260502110025 43 103 0.0 3.0 0.08 0.15 0.15 100 1011.3
20260502105527 43 103 1.0 3.0 0.08 0.15 0.15 100 1011.2
20260502105027 43 103 0.0 3.0 0.07 0.14 0.14 100 1011.3
20260502104527 43 103 1.0 3.0 0.07 0.14 0.14 100 1011.5
20260502104032 43 11 0.0 0.0 0.06 0.13 0.13 100 1011.7
20260502103534 43 11 0.0 0.0 0.06 0.12 0.12 100 1011.7
20260502103033 43 11 0.0 0.0 0.08 0.12 0.12 100 1011.5
20260502102534 43 11 0.0 0.0 0.07 0.11 0.11 100 1011.5
20260502102034 43 11 0.0 0.0 0.07 0.10 0.10 100 1011.4
20260502101535 43 11 0.0 2.0 0.05 0.08 0.08 100 1011.4
20260502101036 43 11 1.0 2.0 0.04 0.07 0.07 100 1011.2
20260502100538 43 11 0.0 0.0 0.04 0.07 0.07 100 1011.0
20260502091037 43 11 0.0 3.0 0.00 0.03 0.03 100 1010.8
20260502090539 43 11 1.0 3.0 0.00 0.03 0.03 100 1010.7
20260502071531 44 13 1.0 4.0 0.01 0.02 0.02 100 1011.3
20260502071027 44 5 0.0 2.0 0.01 0.01 0.01 100 1011.3
20260502070605 44 5 0.0 2.0 0.01 0.01 0.01 100 1011.2
20260502070040 44 5 1.0 2.0 0.01 0.01 0.01 100 1010.9
20260502065540 44 5 1.0 2.0 0.01 0.01 0.01 100 1010.9
20260502065026 44 5 2.0 2.0 0.01 0.01 0.01 100 1010.9
20260502064526 44 5 2.0 2.0 0.01 0.01 0.01 100 1011.0
20260502064028 45 5 0.0 2.0 0.01 0.01 0.01 100 1011.2
20260502063526 45 5 1.0 4.0 0.01 0.01 0.01 100 1011.2
20260502063026 45 5 2.0 4.0 0.01 0.01 0.01 100 1011.1
20260502062546 45 11 2.0 2.0 0.01 0.01 0.01 100 1011.2
20260502062026 45 11 1.0 2.0 0.01 0.01 0.01 100 1011.1
20260502061525 45 11 1.0 2.0 0.01 0.01 0.01 100 1011.2
20260502061046 45 11 1.0 3.0 0.00 0.00 0.00 100 1011.2
20260502060525 45 11 2.0 3.0 0.00 0.00 0.00 100 1011.4
20260502060026 45 11 0.0 3.0 0.00 0.00 0.00 100 1011.5
20260502055527 45 11 0.0 0.0 0.00 0.00 0.00 100 1011.4
20260502055027 45 11 0.0 0.0 0.00 0.00 0.00 100 1011.2
20260502054528 45 11 0.0 1.0 0.00 0.00 0.00 100 1011.1
20260502054028 45 11 0.0 1.0 0.00 0.00 0.00 100 1011.1
20260502053533 45 11 0.0 4.0 0.00 0.00 0.00 100 1011.1
20260502053033 45 11 2.0 4.0 0.00 0.00 0.00 100 1011.0
20260502052534 45 11 3.0 4.0 0.00 0.00 0.00 100 1010.9
20260502052033 45 11 2.0 3.0 0.00 0.00 0.00 100 1011.2
20260502051535 45 11 1.0 2.0 0.00 0.00 0.00 100 1011.1
20260502051035 45 11 1.0 2.0 0.00 0.00 0.00 100 1011.1
20260502050536 46 11 1.0 2.0 0.00 0.00 0.00 100 1011.2
20260502050035 46 11 1.0 2.0 0.00 0.00 0.00 100 1011.2
20260502045537 46 11 2.0 3.0 0.00 0.00 0.00 100 1011.4
20260502045036 46 11 2.0 3.0 0.00 0.00 0.00 100 1011.6
20260502044538 46 11 2.0 3.0 0.00 0.00 0.00 100 1011.7
20260502044058 46 11 1.0 2.0 0.00 0.00 0.00 99 1011.7
20260502043539 46 5 1.0 2.0 0.00 0.00 0.00 99 1011.7
20260502043039 46 5 1.0 2.0 0.00 0.00 0.00 99 1011.7
20260502042524 47 9 1.0 1.0 0.00 0.00 0.00 98 1011.6
20260502042105 47 9 0.0 1.0 0.00 0.00 0.00 97 1011.6
20260502041525 48 9 0.0 1.0 0.00 0.00 0.00 96 1011.5
20260502041025 48 9 0.0 2.0 0.00 0.00 0.00 95 1011.5
20260502040526 48 9 1.0 2.0 0.00 0.00 0.00 94 1011.4
20260502040027 48 9 1.0 2.0 0.00 0.00 0.00 94 1011.4
20260502035550 48 9 0.0 1.0 0.00 0.00 0.00 93 1011.4
20260502035031 48 9 0.0 1.0 0.00 0.00 0.00 92 1011.3
20260502034524 48 9 0.0 1.0 0.00 0.00 0.00 92 1011.2
20260502034025 49 9 0.0 2.0 0.00 0.00 0.00 91 1011.3
20260502033526 49 9 1.0 2.0 0.00 0.00 0.00 90 1011.4
20260502033027 49 9 0.0 2.0 0.00 0.00 0.00 89 1011.4
20260502032547 49 9 1.0 2.0 0.00 0.00 0.00 89 1011.4
20260502032028 49 9 1.0 2.0 0.00 0.00 0.00 88 1011.5
20260502031527 48 9 0.0 0.0 0.00 0.00 0.00 86 1011.5
20260502031028 48 9 0.0 1.0 0.00 0.00 0.00 84 1011.5
20260502030529 48 9 0.0 1.0 0.00 0.00 0.00 82 1011.6
20260502030029 48 9 0.0 1.0 0.00 0.00 0.00 81 1011.5
20260502025533 48 9 0.0 1.0 0.00 0.00 0.00 81 1011.5
20260502025032 48 9 0.0 1.0 0.00 0.00 0.00 80 1011.7
20260502024553 48 9 0.0 1.0 0.00 0.00 0.00 80 1011.7
20260502024032 48 9 0.0 1.0 0.00 0.00 0.00 79 1011.7
20260502023024 48 9 0.0 1.0 0.00 0.00 0.00 80 1011.6
20260502022544 48 9 1.0 2.0 0.00 0.00 0.00 80 1011.6
20260502022044 49 9 1.0 2.0 0.00 0.00 0.00 79 1011.7
20260502021526 49 9 0.0 2.0 0.00 0.00 0.00 79 1011.7
20260502021028 49 9 0.0 1.0 0.00 0.00 0.00 79 1011.7
20260502020549 49 9 0.0 1.0 0.00 0.00 0.00 80 1011.6
20260502020025 49 9 0.0 0.0 0.00 0.00 0.00 79 1011.6
20260502015526 49 9 0.0 1.0 0.00 0.00 0.00 78 1011.7
20260502015025 49 9 0.0 1.0 0.00 0.00 0.00 78 1011.7
20260502014037 50 5 0.0 2.0 0.00 0.00 0.00 79 1011.6
20260502013537 50 5 1.0 2.0 0.00 0.00 0.00 78 1011.6
20260502013037 50 5 0.0 2.0 0.00 0.00 0.00 77 1011.5
20260502012536 50 5 1.0 3.0 0.00 0.00 0.00 76 1011.4
20260502012041 50 5 0.0 3.0 0.00 0.00 0.00 77 1011.4
20260502011541 50 5 2.0 4.0 0.00 0.00 0.00 76 1011.3
20260502011041 50 5 2.0 5.0 0.00 0.00 0.00 77 1011.2
20260502010542 50 11 2.0 4.0 0.00 0.00 0.00 76 1011.2
20260502010103 51 5 1.0 4.0 0.00 0.00 0.00 75 1011.1
20260502005603 51 5 1.0 4.0 0.00 0.00 0.00 74 1011.0
20260502005043 51 5 2.0 4.0 0.00 0.00 0.00 75 1011.0
20260502004542 52 348 1.0 8.0 0.00 0.00 0.00 75 1011.0
20260502004042 52 355 2.0 8.0 0.00 0.00 0.00 74 1011.0
20260502003542 52 22 2.0 6.0 0.00 0.00 0.00 76 1010.9
20260502003042 52 71 0.0 3.0 0.00 0.00 0.00 77 1010.8
20260502002542 52 88 0.0 2.0 0.00 0.00 0.00 74 1010.8
20260502002043 52 88 1.0 2.0 0.00 0.00 0.00 75 1010.7
20260502001542 52 88 1.0 2.0 0.00 0.00 0.00 74 1010.6
20260502001027 52 88 1.0 2.0 0.00 0.00 0.00 74 1010.6
20260502000547 52 88 0.0 1.0 0.00 0.00 0.00 76 1010.5
20260502000028 52 88 0.0 4.0 0.00 0.00 0.00 73 1010.5
20260501235528 52 88 1.0 4.0 0.00 0.00 0.00 72 1010.4
20260501235028 52 140 0.0 0.0 0.00 0.00 0.00 73 1010.4
20260501234527 52 140 0.0 0.0 0.00 0.00 0.00 71 1010.4
20260501234028 53 140 0.0 0.0 0.00 0.00 0.00 72 1010.3
20260501233527 53 140 0.0 0.0 0.00 0.00 0.00 71 1010.2
20260501233029 53 140 0.0 0.0 0.00 0.00 0.00 74 1010.1
20260501232548 53 140 0.0 0.0 0.00 0.00 0.00 73 1010.1
20260501232048 53 140 0.0 1.0 0.00 0.00 0.00 72 1010.0
20260501231527 53 140 0.0 2.0 0.00 0.00 0.00 70 1010.0
20260501231027 54 140 0.0 2.0 0.00 0.00 0.00 73 1009.9
20260501230528 54 140 1.0 3.0 0.00 0.00 0.00 73 1009.8
20260501230030 54 147 1.0 5.0 0.00 0.00 0.00 77 1009.8
20260501225529 55 149 0.0 5.0 0.00 0.01 0.00 72 1009.8
20260501225105 55 131 1.0 3.0 0.00 0.01 0.00 69 1009.8
20260501224604 55 157 1.0 7.0 0.00 0.01 0.00 67 1009.7
20260501224026 55 159 3.0 7.0 0.00 0.01 0.00 66 1009.7
20260501223526 55 113 1.0 5.0 0.00 0.01 0.00 66 1009.7
20260501223027 55 67 2.0 5.0 0.00 0.01 0.00 67 1009.7
20260501222528 55 168 0.0 4.0 0.00 0.01 0.00 66 1009.7
20260501222029 55 169 1.0 4.0 0.00 0.01 0.00 63 1009.7
20260501221528 55 112 0.0 4.0 0.00 0.01 0.00 67 1009.7
20260501221050 55 110 0.0 2.0 0.00 0.01 0.00 67 1009.7
20260501220551 55 110 1.0 4.0 0.00 0.01 0.00 66 1009.7
20260501220029 56 110 2.0 8.0 0.00 0.01 0.00 62 1009.6
20260501215552 56 53 2.0 6.0 0.00 0.02 0.00 64 1009.7
20260501215030 56 94 2.0 6.0 0.00 0.02 0.00 62 1009.7
20260501214531 56 40 3.0 6.0 0.00 0.02 0.00 60 1009.6
20260501214051 56 37 3.0 6.0 0.00 0.02 0.00 58 1009.6
20260501213530 57 138 2.0 8.0 0.00 0.02 0.00 62 1009.6
20260501213051 56 9 2.0 7.0 0.00 0.02 0.00 60 1009.7
20260501212552 57 291 1.0 3.0 0.00 0.02 0.00 62 1009.6
20260501212031 57 34 1.0 5.0 0.00 0.02 0.00 61 1009.7
20260501211531 57 33 2.0 8.0 0.00 0.02 0.00 61 1009.6
20260501211031 58 17 2.0 12.0 0.00 0.02 0.00 59 1009.7
20260501210537 58 360 5.0 12.0 0.00 0.02 0.00 60 1009.7
20260501210056 57 79 2.0 5.0 0.00 0.02 0.00 59 1009.6
20260501205537 57 38 3.0 8.0 0.00 0.02 0.00 60 1009.7
20260501205036 57 20 3.0 8.0 0.00 0.02 0.00 59 1009.7
20260501204557 58 153 2.0 9.0 0.00 0.02 0.00 58 1009.7
20260501204036 58 107 4.0 9.0 0.00 0.02 0.00 61 1009.7
20260501203537 58 163 2.0 7.0 0.00 0.02 0.00 63 1009.7
20260501203038 58 123 3.0 7.0 0.00 0.02 0.00 66 1009.6
20260501202559 57 49 1.0 4.0 0.00 0.02 0.00 61 1009.6
20260501202038 56 49 2.0 10.0 0.00 0.02 0.00 60 1009.6
20260501201539 57 324 2.0 11.0 0.00 0.02 0.00 60 1009.8
20260501201039 58 38 3.0 11.0 0.00 0.02 0.00 58 1009.8
20260501200541 59 329 3.0 5.0 0.00 0.02 0.00 59 1009.7
20260501200041 59 126 2.0 6.0 0.00 0.02 0.00 60 1009.7
20260501195542 58 63 2.0 6.0 0.00 0.02 0.00 61 1009.7
20260501195026 57 66 2.0 4.0 0.00 0.02 0.00 61 1009.8
20260501194547 57 88 2.0 5.0 0.00 0.02 0.00 64 1009.8
20260501194026 57 86 2.0 6.0 0.00 0.02 0.00 61 1009.9
20260501193526 58 145 3.0 10.0 0.00 0.02 0.00 62 1009.9
20260501192559 59 108 4.0 8.0 0.00 0.02 0.00 60 1010.0
20260501192037 59 117 2.0 9.0 0.00 0.02 0.00 60 1009.9
20260501191538 59 331 3.0 15.0 0.00 0.02 0.00 61 1009.9
20260501191038 59 5 4.0 15.0 0.00 0.02 0.00 60 1009.9
20260501190559 58 332 6.0 12.0 0.00 0.02 0.00 64 1010.0
20260501190038 59 158 3.0 10.0 0.00 0.02 0.00 62 1010.2
20260501185539 58 355 4.0 11.0 0.00 0.02 0.00 65 1010.2
20260501185039 58 15 5.0 11.0 0.00 0.02 0.00 66 1010.3
20260501184539 56 53 2.0 6.0 0.00 0.02 0.00 68 1010.2
20260501184038 57 37 3.0 10.0 0.00 0.02 0.00 66 1010.5
20260501183539 58 17 2.0 10.0 0.00 0.02 0.00 68 1010.5
20260501183100 58 28 5.0 9.0 0.00 0.02 0.00 63 1010.5
20260501182600 57 95 4.0 8.0 0.00 0.02 0.00 67 1010.5
20260501182100 56 74 2.0 12.0 0.00 0.02 0.00 66 1010.5
20260501181600 57 219 4.0 14.0 0.00 0.02 0.00 69 1010.6
20260501181100 58 339 5.0 14.0 0.00 0.02 0.00 67 1010.6
20260501180539 58 70 2.0 15.0 0.00 0.02 0.00 66 1010.6
20260501180100 57 14 7.0 15.0 0.00 0.02 0.00 68 1010.5
20260501175539 56 45 6.0 15.0 0.00 0.02 0.00 67 1010.6
20260501175101 56 355 4.0 12.0 0.00 0.02 0.00 67 1010.7
20260501174539 56 161 4.0 12.0 0.00 0.02 0.00 63 1010.7
20260501174044 56 346 5.0 10.0 0.00 0.02 0.00 66 1010.6
20260501173542 57 360 3.0 15.0 0.00 0.02 0.00 69 1010.8
20260501173043 57 43 5.0 15.0 0.00 0.02 0.00 69 1010.8
20260501172543 57 360 4.0 12.0 0.00 0.02 0.00 70 1010.8
20260501172025 57 5 4.0 8.0 0.00 0.02 0.00 70 1010.8
20260501171525 57 313 4.0 8.0 0.00 0.02 0.00 70 1010.7
20260501171043 56 344 3.0 12.0 0.00 0.02 0.00 69 1010.8
20260501170524 53 31 6.0 12.0 0.00 0.02 0.00 70 1010.8
20260501170025 54 51 5.0 16.0 0.00 0.02 0.00 69 1011.0
20260501165525 55 343 11.0 16.0 0.00 0.04 0.00 67 1010.9
20260501165025 57 355 6.0 14.0 0.00 0.04 0.00 66 1011.0
20260501164525 56 313 7.0 14.0 0.00 0.04 0.00 68 1010.9
20260501164104 56 54 5.0 11.0 0.00 0.04 0.00 69 1010.9
20260501163529 55 355 4.0 12.0 0.00 0.04 0.00 66 1010.9
20260501163029 55 12 5.0 15.0 0.00 0.04 0.00 67 1010.9
20260501162530 55 5 4.0 15.0 0.00 0.04 0.00 72 1010.9
20260501162030 55 360 7.0 14.0 0.00 0.04 0.00 70 1011.0
20260501161530 54 65 7.0 14.0 0.00 0.04 0.00 68 1011.0
20260501161030 55 360 8.0 14.0 0.00 0.04 0.00 68 1011.1
20260501160531 54 314 5.0 13.0 0.00 0.04 0.00 75 1011.0
20260501160030 54 24 6.0 13.0 0.00 0.04 0.00 69 1011.1
20260501155533 53 48 2.0 13.0 0.00 0.06 0.00 69 1011.2
20260501155035 53 32 4.0 12.0 0.00 0.06 0.00 69 1011.2
20260501154555 54 11 6.0 12.0 0.00 0.06 0.00 72 1011.3
20260501154034 53 41 6.0 18.0 0.00 0.06 0.00 73 1011.3
20260501153533 53 342 7.0 18.0 0.00 0.06 0.00 70 1011.4
20260501153034 53 360 3.0 9.0 0.00 0.06 0.00 78 1011.4
20260501152533 54 360 4.0 14.0 0.00 0.06 0.00 70 1011.6
20260501152037 53 45 4.0 14.0 0.00 0.06 0.00 72 1011.6
20260501151538 52 24 4.0 12.0 0.00 0.06 0.00 76 1011.5
20260501151038 53 360 8.0 14.0 0.00 0.06 0.00 78 1011.6
20260501150538 52 26 7.0 14.0 0.00 0.06 0.00 75 1011.5
20260501150040 52 55 7.0 16.0 0.00 0.06 0.00 77 1011.5
20260501144059 51 13 11.0 22.0 0.00 0.06 0.00 76 1011.4
20260501143538 51 41 6.0 15.0 0.00 0.06 0.00 76 1011.4
20260501143037 51 64 5.0 15.0 0.00 0.06 0.00 79 1011.3
20260501142538 51 19 7.0 18.0 0.00 0.06 0.00 77 1011.4
20260501142100 50 360 11.0 18.0 0.00 0.06 0.00 81 1011.4
20260501141600 50 20 9.0 15.0 0.00 0.06 0.00 78 1011.4